Taurus 1
1 44530U 19059C   25026.79879617  .00012486  00000-0  24731-2 0  9999
2 44530  98.5895 160.3068 0009712  89.5995 270.6318 14.62397575284369
Duchifat 3
1 44854U 19089C   25026.63859667  .00041529  00000-0  12922-2 0  9996
2 44854  36.9488 117.8280 0009837 163.8329 196.2738 15.32327313282290
TO-108
1 44881U 19093C   25026.77320847  .00002178  00000-0  26101-3 0  9991
2 44881  97.8074 105.1894 0012984 314.8370  45.1789 14.85048977276215
FloripaSat 1
1 44885U 19093G   25026.75562268  .00009661  00000-0  87063-3 0  9996
2 44885  97.8248 114.3080 0010575 294.9656  65.0466 14.95741446276721
RS-44
1 44909U 19096E   25026.31775145  .00000004  00000-0 -22152-4 0  9990
2 44909  82.5247 316.5034 0216350 249.4672 108.3095 12.79737930237511
UPMSat 2
1 46276U 20061E   25026.57267271  .00043499  00000-0  75039-3 0  9992
2 46276  97.2670  98.1910 0001318  66.0844 294.0547 15.50905469244585
AmicalSat
1 46287U 20061R   25010.85863821  .11283921  24654-5  56408-3 0  9994
2 46287  97.2840  89.8720 0009935 281.1985  78.8199 16.41970930241877
SALSAT
1 46495U 20068K   25026.49529569  .00011989  00000-0  56910-3 0  9990
2 46495  97.8449 358.7789 0010179 266.0672  93.9398 15.19371254238142
CubeSX-Sirius-HSE
1 47951U 21022V   25026.79836519  .00068268  00000-0  12380-2 0  9992
2 47951  97.4377 293.4643 0011811  65.2042 295.0436 15.49299882212884
CubeSX-HSE
1 47952U 21022W   25026.78388608  .00074248  00000-0  13283-2 0  9991
2 47952  97.4368 293.6165 0011868  64.5426 295.7051 15.49662125212891
KSU-Cubesat
1 47954U 21022Y   25026.68264798  .00158465  00000-0  16059-2 0  9993
2 47954  97.4360 297.0662 0010214  64.6962 295.5354 15.64680949212823
GRBAlpha
1 47959U 21022AD  25026.80861558  .00071886  00000-0  12908-2 0  9999
2 47959  97.4369 293.8067 0011806  65.2190 295.0287 15.49567132211727
Orbicraft-Zorkiy
1 47960U 21022AE  25026.79627364  .00096377  00000-0  12556-2 0  9995
2 47960  97.4367 296.5826 0010687  63.3172 296.9177 15.58343294212567
TUBIN
1 48900U 21059X   25026.73542541  .00040210  00000-0  81866-3 0  9993
2 48900  97.6632 186.6788 0005291  11.5377 348.5992 15.46145404199262
LEDSAT
1 49069U 21073D   25026.77765964  .00044596  00000-0  10254-2 0  9999
2 49069  97.4089 104.5601 0013099 204.6355 155.4268 15.42441251190696
CUTE
1 49263U 21088D   25026.18113753  .00050181  00000-0  12802-2 0  9997
2 49263  97.4690  99.0950 0009582  16.7582 343.3978 15.39304200183697
TeikyoSat 4
1 49396U 21102B   25026.57484170  .00003808  00000-0  26070-3 0  9995
2 49396  97.4317  69.7773 0011389 227.6918 132.3345 15.06616161176367
Z-Sat
1 49399U 21102E   25026.74090793  .00008035  00000-0  46393-3 0  9998
2 49399  97.4019  72.2861 0018131 203.7917 156.2477 15.12443874176730
KOSEN 1
1 49402U 21102H   25026.67490809  .00011168  00000-0  56190-3 0  9994
2 49402  97.3934  74.7192 0016721 181.8924 178.2250 15.17264462176968
HO-113
1 50466U 21131B   25026.78769333  .00001411  00000-0  45742-3 0  9992
2 50466  98.5161 116.8218 0004468 164.9210 195.2112 14.40483892162187
IRIS-A
1 51044U 22002BN  25026.18073405  .00070111  00000-0  10541-2 0  9996
2 51044  97.3508 100.6040 0003858 314.9118  45.1822 15.54617266168763
Foresail-1
1 52766U 22057AL  25026.33602401  .00069067  00000-0  10455-2 0  9991
2 52766  97.5969 166.6148 0005654  42.3476 317.8212 15.54424378148821
SNUGLITE 2
1 52899U 22065F   25026.36256048  .00003065  00000-0  61351-3 0  9990
2 52899  98.1447 169.8758 0007773 167.0264 193.1139 14.62506962136864
IO-117
1 53106U 22080B   25013.55270770 -.00000003  00000-0  00000+0 0  9994
2 53106  70.1424 119.4379 0008206  58.9554 301.1910  6.42557525 58785
FO-118
1 54684U 22167C   25026.76054035  .00227508  00000-0  16590-2 0  9997
2 54684  97.6101 188.3732 0004242   2.7195 357.4090 15.72598359118823
SO-120
1 56992U 23084BU  25026.74426806  .00519866  00000-0  22631-2 0  9991
2 56992  97.5271 160.7010 0010025 295.4108  64.6123 15.83415307 90712
UmKA 1 (RS40S)
1 57172U 23091G   25026.71974936  .00008988  00000-0  51494-3 0  9997
2 57172  97.5810  82.8857 0016621  77.5203 282.7886 15.12721245 87222
CubeBel-2 (EU11S)
1 57175U 23091K   25026.77520374  .00014204  00000-0  75489-3 0  9997
2 57175  97.5810  83.4146 0014528  86.6019 273.6874 15.15308657 87264
VERONIKA
1 58261U 23174F   25026.76100446  .00059469  00000-0  13873-2 0  9999
2 58261  97.4336 108.0531 0007813 168.5635 191.5791 15.41993139 67895
KAFASAT
1 58317U 23174BP  25026.79420610  .00134243  00000-0  17937-2 0  9991
2 58317  97.4230 110.8712 0004174 144.1510 216.0027 15.57588320 68100
ENSO
1 58470U 23185J   25026.80941066  .00043407  00000-0  10861-2 0  9998
2 58470  97.3956  99.1622 0008736 199.8508 160.2399 15.39940535 64349
EIRSAT-1
1 58472U 23185L   25026.80948009  .00055628  00000-0  12391-2 0  9992
2 58472  97.3950  99.7324 0007965 200.6795 159.4131 15.43393776 64384
SONATE-2
1 59112U 24043Q   25026.32116364  .00023785  00000-0  84681-3 0  9997
2 59112  97.4953 155.6288 0011688 230.0221 129.9993 15.28886050 49778
MO-122
1 60209U 24125G   25026.09888917  .00023352  00000-0  82222-3 0  9990
2 60209  97.2955 239.7011 0020407 259.2649 100.6294 15.29115030 31350
GRBBeta
1 60237U 24128C   25026.63141404  .00007130  00000-0  56941-3 0  9992
2 60237  61.9912 185.9113 0037404  25.9842 334.3115 15.00567983 30089
Curium One
1 60242U 24128H   25026.76631485  .00011612  00000-0  89013-3 0  9991
2 60242  61.9820 185.2286 0037530  19.9703 340.2846 15.01670973 30112
ROBUSTA-3A
1 60243U 24128J   25026.59992428  .00009413  00000-0  73278-3 0  9992
2 60243  61.9886 186.2374 0035640  17.9210 342.3127 15.01312477 30088
CatSat
1 60246U 24125J   25026.55597084  .00015606  00000-0  58492-3 0  9999
2 60246  97.2747 240.6146 0045294 209.1932 150.6774 15.26360485 29516
AO-123
1 61781U 24199AY  25026.89786269  .00013414  00000-0  53468-3 0  9990
2 61781  97.3764 256.4154 0015978 316.0791  43.9176 15.25212081 56485
POEM 4 (BGS ARPIT)
1 62461U 24253C   25026.65038508  .00115348  00000-0  68809-3 0  9991
2 62461  55.2212 127.0178 0008947 358.0036   2.0975 15.77091965  4239
